Powrót do katalogu

FREGAT DEB

AktywnyUNKNOWN
NORAD 46015·DEBRIS·🇷🇺 Russia

Wystrzelony Jul 18, 2011 z Baikonur Cosmodrome

Loading…

Następne Przeloty (najbliższe 24 godziny)

TLE

ŚwieżeSource: Space-Track

Epoka: Sep 13, 2026, 05:22 UTC

1 46015U 11037HS  26256.22426190  .00013829  00000-0  24238-2 0  9999
2 46015  51.3457 202.9757 1241964 139.9657 229.9775 12.64550944263194

Śledź FREGAT DEB w czasie rzeczywistym z AllMySat

Download on the App Store